059  
ASUS44 KOUN 202100  
RWROK  
 
WEATHER ROUNDUP FOR OKLAHOMA  
NATIONAL WEATHER SERVICE NORMAN OK  
400 PM CDT SUN AUG 20 2017  
 
NOTE: "FAIR" INDICATES FEW OR NO CLOUDS BELOW 12,000 FEET WITH NO  
SIGNIFICANT WEATHER AND/OR S TO VISIBILITY
.  
 
OKZ001>007-009>012-014-015-017-202200-  
NORTHWEST OKLAHOMA AND THE PANHANDLE  
 
CITY SKY/WX TMP DP RH WIND PRES REMARKS
 
GAGE MOSUNNY 91 64 40 SW12 29.96F HX 92  
GUYMON CLOUDY 92 64 39 S20G25 29.96F HX 93  

 
 
OKZ016-021>023-033>039-044-045-202200-  
SOUTHWEST OKLAHOMA  
 
CITY SKY/WX TMP DP RH WIND PRES REMARKS
 
LAWTON/REGL SUNNY 94 73 50 S13G20 29.96F HX 103  
LAWTON/FT SILL SUNNY 93 77 59 S14 29.95F HX 106  
FREDERICK SUNNY 95 72 47 S18G24 29.92F HX 103  
CLINTON SUNNY 95 67 39 S18G28 29.97F HX 99  
HOBART SUNNY 98 68 37 S20G25 29.96F HX 103  
ALTUS AFB SUNNY 95 69 41 N15 29.94F HX 100  

 
 
OKZ018>020-024>031-202200-  
CENTRAL OKLAHOMA  
 
CITY SKY/WX TMP DP RH WIND PRES REMARKS
 
OKLAHOMA CITY CLOUDY 90 70 51 S14 29.97F HX 95  
OKC/WILEY POST MOSUNNY 90 72 55 S17 29.97F HX 97  
OKC/TINKER AFB MOSUNNY 89 72 57 S14 29.97F HX 96  
STILLWATER MOSUNNY 95 71 45 S16G23 29.94F HX 102  
GUTHRIE MOSUNNY 93 71 48 S14G20 29.95F HX 100  

 
 
OKZ008-013-054>072-202200-  
NORTHEAST OKLAHOMA  
 
CITY SKY/WX TMP DP RH WIND PRES REMARKS
 
TULSA PTSUNNY 96 73 47 S14 29.93F HX 105  
TULSA/JONES MOSUNNY 97 68 38 S13 29.94F HX 102  
BARTLESVILLE MOSUNNY 95 73 48 S9G17 29.94F HX 104  
MUSKOGEE SUNNY 94 71 47 SW10 29.97F HX 101  

 
 
OKZ032-040>043-046>053-073>077-202200-  
SOUTH CENTRAL/SOUTHEAST OKLAHOMA  
 
CITY SKY/WX TMP DP RH WIND PRES REMARKS
 
MCALESTER MOSUNNY 95 74 50 S8 29.98F HX 105  

 
 
 
 
CLICK HERE TO GO TO PREVIOUS BULLETINS.

The Nexlab OK Page Main Text Page